Location: Unspecified
(45.4305°N, 0.0000°E)
Time: 16:41:25
(UTC+00:00)

Cosmos 1125 Rocket - Visible Passes

Search period start: 04 April 2026 00:00
Search period end: 14 April 2026 00:00
Orbit: 753 x 775 km, 74.0° (Epoch: 29 March)

Date Brightness Start Highest point End Pass type
(mag) Time Alt. Az. Time Alt. Az. Time Alt. Az.
4 Apr 5.7 00:16:01 21° N 00:16:01 21° N 00:18:01 10° N visible
4 Apr 5.7 23:38:07 22° N 23:38:07 22° N 23:40:00 10° NNE visible
5 Apr 6.2 01:18:15 10° NW 01:18:15 10° NW 01:18:56 10° NNW visible
5 Apr 5.6 23:00:09 21° NNE 23:00:09 21° NNE 23:01:48 10° NNE visible
6 Apr 5.9 00:40:18 15° NW 00:40:18 15° NW 00:42:31 10° N visible
6 Apr 5.7 22:22:10 17° NE 22:22:10 17° NE 22:23:26 10° NNE visible
7 Apr 5.7 00:02:19 21° NNW 00:02:19 21° NNW 00:04:56 10° N visible
7 Apr 5.8 21:44:08 13° NE 21:44:08 13° NE 21:44:48 10° NE visible
7 Apr 5.4 23:24:16 27° NNW 23:24:16 27° NNW 23:27:03 10° N visible
8 Apr 5.0 22:46:10 32° N 22:46:10 32° N 22:49:00 10° NNE visible
9 Apr 6.1 00:26:18 11° NW 00:26:51 12° NW 00:28:39 10° NNW visible
9 Apr 4.8 22:07:59 32° NNE 22:07:59 32° NNE 22:10:46 10° NNE visible
9 Apr 5.8 23:48:06 18° NW 23:48:08 18° NW 23:51:40 10° N visible
10 Apr 4.8 21:29:43 27° NE 21:29:43 27° NE 21:32:20 10° NNE visible
10 Apr 5.2 23:09:51 27° NW 23:09:51 27° NW 23:14:01 10° N visible
11 Apr 5.0 20:51:21 21° ENE 20:51:21 21° ENE 20:53:38 10° NE visible
11 Apr 4.5 22:31:27 43° NW 22:31:27 43° NW 22:36:05 10° N visible
12 Apr 5.3 20:12:49 14° ENE 20:12:49 14° ENE 20:14:22 10° ENE visible
12 Apr 3.6 21:52:55 72° NW 21:52:55 72° NW 21:57:59 10° NNE visible
12 Apr 6.2 23:33:22 10° WNW 23:35:42 13° NW 23:38:03 10° NNW visible
13 Apr 3.3 21:14:09 65° SE 21:14:29 68° ESE 21:19:42 10° NNE visible
13 Apr 5.8 22:54:13 14° W 22:57:00 20° NW 23:00:48 10° N visible
